Weather History for Gillette, WY

Change the Weather History Date:

Tuesday, January 8, 2013

  Actual Average Record
Temperature  
Mean Temperature 28 °F 26 °F  
Max Temperature 40 °F 37 °F - ()
Min Temperature 16 °F 14 °F - ()
Degree Days  
Heating Degree Days 37 39  
Month to date heating degree days 331 317  
Since 1 July heating degree days 3171 3458  
Cooling Degree Days 0 0  
Month to date cooling degree days 0 0  
Year to date cooling degree days 0 0  
Moisture  
Dew Point 20 °F    
Average Humidity 71    
Maximum Humidity 92    
Minimum Humidity 50    
Precipitation  
Precipitation 0.00 in 0.01 in - ()
Month to date precipitation 0.04 0.08  
Year to date precipitation 0.04 0.08  
Sea Level Pressure  
Sea Level Pressure 29.95 in    
Wind  
Wind Speed 9 mph (West)    
Max Wind Speed 28 mph    
Max Gust Speed 37 mph    
Visibility 10 miles    
Events      
T = Trace of Precipitation, MM = Missing Value Source: NWS Daily Summary

Daily Weather History Graph

Daily Weather History Graph

Search for Another Location

Airport:

Trip Planner

Search our weather history database for the weather conditions in past years. The results will help you decide how hot, cold, wet, or windy it might be!

Date:

Astronomy

Jan. 08, 2013 Rise Set
Actual Time 7:37 AM MST 4:41 PM MST
Civil Twilight 7:04 AM MST 5:13 PM MST
Nautical Twilight 6:28 AM MST 5:50 PM MST
Astronomical Twilight 5:53 AM MST 6:25 PM MST
Moon 4:12 AM MST (1/8) 1:46 PM MST (1/8)
Length of Visible Light 10h 09m
Length of Day
9h 03m
Waning Crescent, 13% of the Moon is Illuminated
Jan 8
Waning Crescent
Jan 11
New
Jan 18
First Quarter
Jan 26
Full
Feb 3
Last Quarter

Hourly Weather History & Observations

Time (MST) Temp. Windchill Dew Point Humidity Pressure Visibility Wind Dir Wind Speed Gust Speed Precip Events Conditions
12:53 AM 32.0 °F - 19.9 °F 61% 29.71 in 10.0 mi Calm Calm - N/A   Overcast
1:53 AM 34.0 °F - 21.0 °F 59% 29.72 in 10.0 mi Calm Calm - N/A   Overcast
2:53 AM 32.0 °F - 21.9 °F 66% 29.74 in 10.0 mi Calm Calm - N/A   Overcast
3:53 AM 28.0 °F 17.5 °F 19.0 °F 69% 29.76 in 10.0 mi WSW 12.7 mph - N/A   Clear
4:53 AM 30.9 °F 19.4 °F 19.9 °F 64% 29.79 in 10.0 mi SW 17.3 mph - N/A   Clear
5:53 AM 30.0 °F 19.5 °F 19.0 °F 64% 29.84 in 10.0 mi WSW 13.8 mph - N/A   Clear
6:53 AM 28.9 °F 19.2 °F 18.0 °F 64% 29.84 in 10.0 mi West 11.5 mph - N/A   Clear
7:53 AM 28.9 °F 19.8 °F 18.0 °F 64% 29.85 in 10.0 mi West 10.4 mph - N/A   Clear
8:53 AM 32.0 °F 23.6 °F 21.0 °F 64% 29.88 in 10.0 mi West 10.4 mph - N/A   Mostly Cloudy
9:53 AM 35.1 °F 28.6 °F 23.0 °F 61% 29.90 in 10.0 mi West 8.1 mph - N/A   Scattered Clouds
10:53 AM 37.9 °F 32.1 °F 24.1 °F 57% 29.90 in 10.0 mi West 8.1 mph - N/A   Mostly Cloudy
11:53 AM 39.0 °F 30.6 °F 23.0 °F 53% 29.90 in 10.0 mi WNW 15.0 mph - N/A   Scattered Clouds
12:53 PM 39.9 °F 31.1 °F 23.0 °F 51% 29.91 in 10.0 mi NW 17.3 mph - N/A   Mostly Cloudy
1:53 PM 37.9 °F 30.0 °F 24.1 °F 57% 29.94 in 10.0 mi NNW 12.7 mph - N/A   Overcast
2:53 PM 37.9 °F 32.1 °F 24.1 °F 57% 29.97 in 10.0 mi WNW 8.1 mph - N/A   Mostly Cloudy
3:53 PM 36.0 °F 29.0 °F 23.0 °F 59% 30.04 in 10.0 mi WNW 9.2 mph - N/A   Clear
4:53 PM 32.0 °F 23.6 °F 21.0 °F 64% 30.05 in 10.0 mi WNW 10.4 mph - N/A   Clear
5:53 PM 28.9 °F 18.6 °F 19.0 °F 67% 30.11 in 10.0 mi NNW 12.7 mph - N/A   Clear
6:53 PM 21.9 °F 15.7 °F 16.0 °F 78% 30.14 in 10.0 mi WNW 4.6 mph - N/A   Clear
7:53 PM 17.1 °F 8.7 °F 15.1 °F 92% 30.17 in 10.0 mi South 5.8 mph - N/A   Clear
8:53 PM 19.0 °F 13.9 °F 16.0 °F 88% 30.17 in 10.0 mi SSW 3.5 mph - N/A   Clear
9:53 PM 21.0 °F 9.3 °F 18.0 °F 88% 30.16 in 10.0 mi South 11.5 mph - N/A   Clear
10:53 PM 21.0 °F 9.9 °F 16.0 °F 81% 30.14 in 10.0 mi SSE 10.4 mph - N/A   Clear
11:53 PM 23.0 °F 11.1 °F 15.1 °F 72% 30.13 in 10.0 mi South 12.7 mph - N/A   Clear